Wind_Speed
15 14 14 14 16 17 17 19 21 24 26 22 22 19 21 21 19 14 15 16 18 16 16 17 17 14 13 8 8 11 14 13 14 15 17 19 18 20 21 23 26 29 34 40
13 11 12 12 13 13 14 17 20 23 27 25 24 21 26 23 20 21 19 17 17 15 16 16 17 18 14 12 12 14 14 16 20 20 21 23 24 24 26 29 31 36 40 44
13 10 8 9 10 11 13 14 17 21 21 21 20 22 23 25 23 22 20 15 8 14 16 20 24 21 19 16 21 17 17 18 21 22 25 27 28 30 31 33 35 40 46 46
9 8 8 9 10 10 11 13 14 15 16 18 16 20 22 21 19 18 15 6 10 14 20 17 8 7 14 18 20 19 18 19 20 25 30 32 35 37 37 39 41 43 50 52
4 6 6 7 8 9 10 11 12 11 11 15 15 15 19 20 15 8 7 11 12 19 16 10 8 6 11 18 18 21 18 19 22 23 24 26 28 30 33 36 40 46 49 38
7 7 8 6 7 6 8 8 10 8 10 10 12 14 18 17 15 9 8 13 16 19 22 14 18 16 12 14 17 16 13 20 24 27 25 26 27 28 31 33 34 39 36 35
9 11 10 9 9 8 8 7 6 7 7 10 11 14 14 16 20 18 15 14 14 16 18 17 19 19 22 23 22 21 22 23 29 30 32 34 35 33 35 37 37 35 34 35
10 12 12 11 9 8 11 10 9 5 8 9 14 14 14 17 22 20 19 19 19 14 14 24 18 26 19 28 16 20 21 26 29 30 31 36 36 36 36 36 37 35 35 32
11 12 14 14 15 13 13 11 12 12 8 6 13 14 15 16 20 22 22 20 17 18 19 19 23 25 21 21 26 29 33 32 33 34 36 36 33 35 36 37 37 34 31 33
10 9 12 16 16 19 18 17 15 15 17 15 10 14 20 19 21 24 26 26 25 26 24 24 23 24 28 26 34 37 36 32 36 38 38 36 35 34 34 36 37 32 33 33
10 10 12 16 18 19 20 21 21 21 22 24 17 15 17 21 23 23 25 27 28 28 25 21 21 22 25 28 28 32 36 38 38 43 45 40 35 33 30 35 35 33 33 31
17 15 12 16 18 22 23 26 27 28 29 30 31 18 24 27 26 23 24 26 26 24 24 27 26 27 27 32 34 36 40 40 43 48 57 48 34 35 42 39 36 36 34 34
20 21 23 24 25 25 25 26 30 33 35 31 36 34 28 29 30 31 30 29 30 31 32 31 31 32 35 35 39 44 45 44 49 48 54 58 47 56 65 36 35 34 29 31
24 26 26 26 30 31 31 31 32 36 40 42 38 40 37 36 33 33 35 35 35 37 38 38 39 40 39 44 47 48 50 49 47 47 49 50 52 54 46 29 26 25 28 33
27 28 28 28 29 33 35 32 33 38 40 44 43 42 43 40 39 39 39 39 39 41 43 43 44 45 45 46 49 55 53 48 47 48 46 47 44 42 45 43 30 26 27 31
29 31 33 33 33 35 37 31 36 38 41 43 43 44 43 42 42 41 40 40 41 43 44 45 46 47 50 52 53 55 54 45 40 36 39 41 40 39 38 37 25 23 24 30
32 34 37 37 36 38 37 33 35 35 36 38 39 40 42 43 41 40 40 40 41 43 44 46 47 48 50 51 53 54 55 50 44 39 39 39 37 36 34 31 27 16 27 33
34 38 42 43 39 38 34 34 34 34 35 33 33 35 37 38 38 38 39 40 42 43 44 46 48 50 52 50 48 48 51 51 42 38 41 39 32 31 32 31 28 26 33 36
38 41 42 39 36 35 30 31 30 29 29 29 30 31 33 37 39 41 41 42 43 43 43 45 50 51 51 47 44 47 51 53 47 41 40 32 29 29 28 30 31 32 34 35
41 38 34 34 35 34 29 27 29 32 33 32 33 35 36 38 40 42 45 46 45 45 47 47 48 48 49 44 43 48 43 34 39 41 37 33 27 26 25 28 30 32 34 34
32 35 35 36 37 36 30 31 33 36 37 37 38 38 39 40 42 43 44 45 47 47 48 50 52 54 48 43 40 44 40 43 37 36 33 30 25 25 26 28 29 33 34 33
31 34 35 38 38 39 38 41 40 39 39 40 41 41 42 43 44 48 51 53 52 50 48 49 50 49 47 46 45 36 31 29 27 27 27 24 21 23 25 26 29 31 31 33
31 33 37 37 37 40 45 46 43 43 43 44 44 45 49 52 54 54 53 52 52 49 45 43 41 47 41 43 40 37 29 30 29 20 21 20 19 20 25 25 27 28 30 35
35 37 39 41 39 45 47 44 45 45 45 45 48 51 53 55 55 53 49 44 42 41 43 39 37 31 31 22 20 16 24 21 19 18 19 18 19 21 24 26 25 27 33 37
34 39 43 44 41 44 40 43 44 45 46 50 53 54 54 55 54 49 44 40 37 36 38 39 32 29 25 17 18 17 17 18 17 16 18 17 18 19 22 22 23 29 35 38
40 42 42 42 42 43 41 41 42 47 51 53 52 50 51 48 43 41 41 37 34 30 29 30 28 22 28 22 18 16 16 16 14 15 13 12 18 16 18 22 27 31 36 32
Wind_Direction
267 267 270 270 270 268 268 265 265 272 277 283 288 287 300 272 265 285 297 293 287 289 295 274 275 270 247 254 280 297 302 294 296 303 292 291 296 295 297 292 292 292 291 291
279 279 279 279 282 287 284 281 275 270 272 279 279 281 273 271 272 266 279 285 281 303 310 311 292 275 269 289 281 291 294 277 286 287 284 283 282 284 287 289 289 288 286 286
284 290 278 273 271 282 286 283 277 279 274 275 276 276 276 278 291 288 286 283 286 307 304 301 288 290 275 279 298 281 285 269 279 288 290 291 288 285 283 285 286 288 287 291
291 284 282 295 310 319 315 307 292 287 289 278 287 276 283 285 300 299 308 286 304 280 284 284 259 221 273 279 270 264 274 273 281 287 290 288 287 286 283 284 284 283 283 284
288 295 289 291 306 313 309 298 293 292 288 291 302 280 272 279 297 288 260 240 268 284 286 296 308 295 286 282 286 283 285 286 295 294 294 292 291 289 287 286 283 281 281 307
277 282 291 321 309 332 320 291 283 292 289 299 300 292 275 285 294 276 240 256 268 281 283 265 262 277 260 286 286 308 287 305 309 296 292 291 296 300 296 294 293 299 307 303
287 285 295 307 313 328 336 327 330 314 297 299 302 299 300 292 294 299 275 254 273 292 288 267 272 294 288 310 313 316 294 293 310 307 302 299 299 301 301 301 301 296 294 291
301 283 298 302 306 304 306 320 317 305 294 291 306 303 307 294 288 287 289 298 304 306 291 289 306 298 293 332 334 324 305 300 304 303 307 304 301 296 294 293 292 296 296 298
291 289 306 297 293 294 290 292 298 308 319 304 295 297 302 291 288 290 285 289 297 290 293 289 301 307 323 308 310 320 311 305 301 307 306 304 299 290 294 293 292 294 290 289
295 284 306 302 302 304 312 305 303 307 304 302 297 287 286 285 287 291 294 293 290 288 290 296 304 305 308 303 303 302 303 302 301 297 295 295 292 285 279 280 286 288 292 294
271 280 285 291 302 304 300 299 300 301 295 294 286 284 286 286 287 294 296 300 305 305 294 289 301 303 297 292 294 306 308 298 298 296 287 284 270 271 275 273 273 280 285 292
278 268 252 260 273 275 282 289 289 287 285 286 287 276 284 281 284 291 293 291 295 299 299 299 305 308 308 310 308 303 300 307 306 304 302 305 292 328 301 272 267 277 282 289
285 277 272 274 273 270 270 274 278 283 285 283 283 289 282 277 285 289 290 289 293 291 292 293 292 294 298 299 300 299 302 304 306 308 308 312 324 320 327 265 265 271 289 303
281 281 283 284 283 283 280 277 277 277 280 283 282 284 282 286 286 284 286 289 289 287 289 291 294 295 295 297 300 300 300 299 299 305 308 313 319 330 327 294 267 277 286 292
286 287 286 284 285 286 286 289 286 282 280 281 284 284 286 286 286 286 287 287 288 290 290 291 292 293 294 295 296 296 296 297 299 298 300 306 316 325 321 320 285 270 279 292
283 287 289 290 291 288 286 286 277 275 276 280 282 284 284 284 284 284 286 288 289 289 291 292 293 295 297 298 296 295 295 292 294 294 302 307 312 317 322 329 274 267 285 295
286 285 285 288 288 285 286 281 278 278 275 274 274 276 279 281 282 284 285 286 285 287 288 288 290 291 292 293 294 296 294 290 289 297 298 308 312 316 318 331 317 309 307 307
287 287 290 295 295 289 288 284 281 280 279 276 273 271 272 275 276 277 277 278 281 282 283 285 285 283 282 284 287 290 292 289 287 296 301 309 308 306 311 309 313 303 304 304
286 290 295 295 292 292 293 291 286 282 278 281 278 275 275 276 277 279 279 279 280 284 286 283 280 280 277 279 283 285 292 281 281 287 295 306 307 308 305 300 305 301 305 307
286 290 292 293 292 289 287 284 285 284 284 285 284 281 279 277 281 285 289 290 291 292 293 290 286 282 277 277 277 283 291 285 282 290 298 307 309 309 299 292 295 299 306 313
288 289 290 288 285 286 291 290 286 284 286 284 282 283 286 287 287 288 289 291 292 290 285 282 282 284 284 279 282 296 283 282 284 292 295 301 304 307 297 295 297 302 309 315
286 286 285 283 286 291 292 287 287 287 286 288 291 293 293 291 290 291 293 293 288 285 281 281 283 281 282 281 279 287 297 291 285 289 294 294 302 303 297 295 298 305 313 317
287 283 281 283 286 287 284 286 293 295 295 295 295 295 295 298 299 298 296 296 295 293 287 280 277 277 290 285 278 273 284 288 284 284 286 290 287 289 298 303 305 309 317 318
283 281 281 281 283 286 290 295 291 290 291 293 294 296 298 298 297 298 300 298 294 287 284 276 276 271 271 277 284 280 280 287 297 292 289 287 280 286 301 307 306 319 319 320
288 284 284 286 289 288 291 290 290 290 292 295 298 299 298 296 298 299 297 297 297 284 281 280 287 279 273 277 283 284 297 301 302 298 294 289 277 284 302 300 314 317 316 316
289 290 290 291 289 291 292 288 289 293 296 296 296 296 297 296 297 298 300 299 298 287 278 278 284 272 277 273 283 286 301 311 309 307 293 292 281 309 304 306 315 316 315 322
Height
5880 5880 5880 5879 5879 5880 5881 5880 5880 5878 5877 5879 5880 5882 5882 5878 5875 5874 5875 5876 5876 5876 5878 5878 5879 5879 5879 5879 5879 5878 5877 5876 5874 5873 5872 5870 5869 5867 5866 5863 5861 5857 5852 5846
5878 5878 5878 5877 5877 5878 5878 5879 5879 5878 5876 5876 5876 5879 5873 5873 5875 5874 5873 5873 5873 5872 5874 5874 5874 5875 5877 5877 5877 5875 5874 5873 5871 5869 5868 5866 5865 5863 5861 5857 5854 5850 5845 5838
5875 5876 5875 5874 5874 5874 5874 5875 5874 5874 5873 5871 5872 5871 5870 5869 5869 5870 5869 5869 5871 5871 5871 5871 5869 5871 5873 5874 5874 5872 5870 5869 5867 5864 5862 5861 5859 5857 5854 5851 5847 5843 5836 5831
5874 5873 5873 5872 5872 5873 5872 5872 5872 5871 5870 5868 5871 5869 5867 5867 5867 5866 5867 5867 5869 5870 5869 5869 5867 5867 5871 5871 5869 5867 5866 5865 5862 5860 5857 5854 5851 5848 5845 5843 5838 5834 5825 5821
5874 5872 5872 5872 5871 5871 5871 5870 5869 5869 5868 5867 5868 5867 5865 5865 5866 5866 5866 5867 5868 5867 5866 5865 5865 5866 5865 5866 5865 5864 5861 5860 5857 5852 5849 5845 5840 5837 5835 5833 5828 5822 5815 5810
5871 5870 5870 5870 5870 5869 5868 5867 5867 5867 5866 5866 5866 5865 5864 5864 5864 5864 5865 5866 5865 5865 5864 5863 5861 5861 5861 5861 5861 5859 5855 5853 5849 5844 5840 5835 5831 5828 5824 5821 5816 5809 5802 5802
5869 5869 5869 5868 5868 5867 5867 5867 5867 5866 5865 5864 5863 5863 5863 5861 5861 5862 5862 5862 5862 5862 5862 5860 5860 5859 5857 5857 5854 5852 5850 5847 5843 5837 5832 5826 5822 5819 5814 5807 5803 5801 5799 5797
5868 5868 5868 5867 5867 5866 5865 5865 5864 5864 5863 5863 5861 5861 5862 5859 5857 5855 5855 5856 5856 5858 5857 5855 5853 5853 5848 5850 5846 5844 5844 5840 5835 5831 5825 5819 5815 5811 5806 5802 5797 5795 5794 5790
5866 5866 5865 5865 5864 5865 5864 5864 5863 5862 5862 5861 5859 5858 5858 5855 5853 5851 5852 5853 5853 5853 5853 5853 5851 5848 5846 5844 5841 5838 5836 5832 5825 5821 5816 5812 5809 5803 5799 5794 5792 5789 5787 5784
5865 5865 5864 5862 5862 5861 5861 5862 5862 5860 5858 5857 5858 5856 5853 5852 5850 5849 5848 5847 5848 5848 5848 5848 5846 5843 5840 5839 5835 5832 5829 5824 5816 5808 5803 5798 5796 5790 5787 5784 5782 5782 5780 5777
5863 5863 5863 5860 5859 5858 5857 5857 5856 5856 5855 5852 5853 5854 5850 5847 5845 5846 5844 5843 5841 5841 5840 5840 5839 5837 5835 5832 5828 5823 5818 5810 5807 5799 5791 5783 5776 5774 5776 5775 5773 5772 5770 5767
5858 5859 5859 5857 5855 5853 5853 5851 5851 5850 5849 5846 5845 5851 5847 5842 5842 5842 5840 5838 5836 5835 5833 5832 5831 5830 5828 5825 5820 5815 5808 5808 5801 5796 5782 5757 5768 5774 5775 5768 5764 5762 5759 5757
5852 5852 5851 5851 5851 5850 5849 5848 5845 5843 5841 5842 5837 5840 5841 5839 5838 5836 5834 5833 5831 5829 5827 5825 5823 5822 5820 5817 5812 5806 5801 5799 5789 5783 5776 5767 5767 5764 5757 5746 5753 5752 5752 5751
5845 5845 5845 5846 5843 5842 5841 5840 5838 5835 5832 5830 5831 5829 5830 5830 5832 5831 5828 5825 5823 5822 5819 5817 5814 5812 5810 5807 5803 5797 5793 5789 5781 5775 5767 5764 5764 5758 5752 5749 5746 5747 5746 5745
5838 5837 5838 5837 5837 5834 5831 5834 5831 5827 5825 5822 5822 5820 5819 5821 5820 5820 5819 5817 5815 5813 5810 5807 5805 5802 5800 5798 5793 5786 5782 5780 5776 5771 5764 5762 5760 5754 5748 5744 5740 5740 5740 5737
5831 5830 5828 5828 5828 5825 5823 5826 5821 5819 5817 5815 5812 5810 5810 5809 5808 5808 5807 5806 5804 5802 5800 5798 5795 5792 5789 5786 5783 5777 5773 5769 5768 5758 5757 5756 5754 5751 5745 5739 5734 5734 5734 5730
5826 5823 5819 5819 5820 5816 5817 5814 5810 5808 5807 5806 5805 5803 5800 5798 5797 5796 5795 5793 5792 5790 5788 5785 5783 5781 5779 5776 5772 5767 5763 5760 5758 5753 5750 5749 5748 5744 5739 5737 5732 5729 5728 5725
5817 5813 5810 5809 5810 5807 5808 5803 5802 5800 5797 5796 5796 5794 5792 5790 5789 5787 5784 5783 5781 5778 5776 5773 5771 5769 5767 5764 5760 5757 5753 5750 5748 5744 5742 5742 5741 5737 5734 5732 5729 5726 5722 5717
5808 5805 5803 5801 5799 5798 5797 5795 5793 5791 5790 5789 5787 5786 5784 5782 5781 5779 5777 5774 5771 5768 5766 5764 5760 5758 5755 5752 5749 5745 5742 5739 5737 5737 5736 5734 5732 5730 5728 5725 5722 5718 5714 5708
5799 5797 5796 5792 5789 5786 5788 5788 5785 5781 5781 5781 5779 5777 5775 5772 5769 5767 5764 5761 5759 5756 5753 5750 5746 5744 5742 5740 5737 5734 5732 5727 5728 5727 5727 5725 5723 5721 5720 5716 5713 5709 5705 5699
5792 5788 5787 5783 5779 5779 5781 5780 5777 5774 5773 5769 5766 5764 5763 5761 5759 5756 5753 5749 5746 5743 5739 5735 5732 5729 5727 5727 5726 5722 5719 5720 5720 5718 5717 5716 5714 5712 5709 5707 5703 5700 5697 5692
5786 5781 5778 5774 5773 5772 5771 5766 5765 5765 5762 5758 5755 5753 5750 5747 5743 5740 5736 5734 5731 5728 5726 5722 5719 5718 5716 5715 5716 5715 5711 5711 5711 5710 5709 5708 5708 5707 5704 5701 5698 5695 5690 5685
5776 5773 5768 5768 5767 5763 5757 5756 5757 5754 5750 5748 5744 5740 5735 5731 5727 5724 5721 5717 5712 5708 5707 5706 5705 5704 5703 5703 5702 5705 5704 5704 5702 5701 5702 5703 5703 5701 5698 5695 5692 5688 5684 5678
5765 5762 5760 5758 5759 5752 5749 5749 5744 5741 5739 5736 5731 5727 5723 5718 5713 5709 5704 5701 5698 5695 5692 5691 5692 5694 5694 5691 5692 5693 5695 5696 5694 5694 5695 5696 5695 5695 5693 5689 5686 5682 5676 5671
5759 5753 5750 5749 5749 5742 5743 5738 5734 5730 5726 5722 5717 5711 5706 5701 5699 5694 5692 5690 5687 5684 5682 5680 5682 5684 5685 5686 5687 5687 5688 5688 5688 5688 5690 5690 5689 5687 5686 5684 5680 5676 5671 5665
5749 5747 5744 5741 5737 5734 5734 5729 5725 5720 5715 5710 5704 5700 5694 5689 5686 5682 5679 5676 5675 5674 5672 5672 5674 5674 5677 5680 5681 5682 5681 5682 5683 5683 5684 5683 5679 5674 5678 5678 5675 5670 5665 5659